* Astronomy

Members Login
Username 
 
Password 
    Remember Me  
Post Info TOPIC: 2006WZ2


L

Posts: 131433
Date:
2006WZ2
Permalink  
 


Orbital elements:
2006 WZ2
Epoch 2006 Sept. 22.0 TT = JDT 2454000.5 MPC
M 359.25991 (2000.0) P Q
n 0.04686800 Peri. 110.27311 -0.38480948 -0.92279345
a 7.6187737 Node 2.60998 +0.60546112 -0.26818237
e 0.7929662 Incl. 25.12804 +0.69666240 -0.27664141
P 21.03 H 16.1 G 0.15 U 8


Ephemeris:
2006 WZ2 a,e,i = 7.62, 0.79, 25 q = 1.5773
Date TT R. A. (2000) Decl. Delta r Elong. Phase V
2006 11 21 12 12.29 +14 26.3 1.874 1.666 62.5 31.7 19.9
2006 12 01 12 31.09 +11 03.9 1.841 1.708 66.6 32.0 19.9
2006 12 11 12 47.67 +07 50.9 1.805 1.757 71.3 32.1 20.0


See more

__________________
Page 1 of 1  sorted by
Quick Reply

Please log in to post quick replies.



Create your own FREE Forum
Report Abuse
Powered by ActiveBoard